Tracking 28125 objects as of 3-Oct-2023
HD Live streaming from Space Station
objects crossing your sky now

STARLINK-30402

Track STARLINK-30402 now!
10-day predictions
STARLINK-30402 is classified as:


NORAD ID: 57827
Int'l Code: 2023-138V
Perigee: 426.0 km
Apogee: 427.9 km
Inclination: 43.0 °
Period: 93.0 minutes
Semi major axis: 6797 km
RCS: Unknown
Launch date: September 9, 2023
Source: United States (US)
Launch site: AIR FORCE EASTERN TEST RANGE (AFETR)
Your satellite tracking list
Your tracking list is empty




NASA's NSSDC Master Catalog

Two Line Element Set (TLE):
1 57827U 23138V   23275.58334491 -.00009547  00000-0 -16655-3 0  9995
2 57827  43.0006  30.6042 0001381 252.4504  42.0267 15.48950238  4925
Source of the keplerian elements: AFSPC